Regional Weather Roundup
Issued by NWS

Home | Current Version | Previous Version | Text Only | Print | Product List | Glossary On
Versions: 1 2 3 4 5 6 7 8 9 10 11 12 13 14 15 16 17 18 19 20 21 22 23 24 25 26 27 28 29 30 31 32 33 34 35 36 37 38 39 40 41 42 43 44 45 46 47 48 49 50
000
ASUS44 KOUN 010110
RWROK

WEATHER ROUNDUP FOR OKLAHOMA
NATIONAL WEATHER SERVICE NORMAN OK
800 PM CDT FRI OCT 31 2014

NOTE: "FAIR" INDICATES FEW OR NO CLOUDS BELOW 12,000 FEET WITH NO
      SIGNIFICANT WEATHER AND/OR OBSTRUCTIONS TO VISIBILITY.

OKZ001>007-009>012-014-015-017-010200-
NORTHWEST OKLAHOMA AND THE PANHANDLE

CITY           SKY/WX    TMP DP  RH WIND       PRES   REMARKS
GAGE           PTCLDY    42  23  46 SE7       30.39R
$$

OKZ016-021>023-033>039-044-045-010200-
SOUTHWEST OKLAHOMA

CITY           SKY/WX    TMP DP  RH WIND       PRES   REMARKS
LAWTON/REGL    CLEAR     51  28  41 N9        30.38R
LAWTON/FT SILL CLEAR     50  28  41 NE10      30.37R
FREDERICK      CLEAR     51  27  39 NE10      30.35R
CLINTON        CLEAR     47  28  47 NE8       30.41R
HOBART         CLEAR     46  23  40 NE9       30.39R
ALTUS AFB      CLEAR     47  27  46 NE9       30.38R
$$

OKZ018>020-024>031-010200-
CENTRAL OKLAHOMA

CITY           SKY/WX    TMP DP  RH WIND       PRES   REMARKS
OKLAHOMA CITY  PTCLDY    49  24  37 NE8       30.40R
OKC/WILEY POST CLEAR     43  26  51 N8        30.41R
OKC/TINKER AFB CLEAR     46  25  43 NE8       30.39R
STILLWATER     CLEAR     41  24  51 NE8       30.42R
GUTHRIE        CLEAR     44  22  41 NE3       30.42R
$$

OKZ008-013-054>072-010200-
NORTHEAST OKLAHOMA

CITY           SKY/WX    TMP DP  RH WIND       PRES   REMARKS
TULSA          CLEAR     41  25  53 N7        30.41R
TULSA/JONES    CLEAR     45  24  43 N6        30.42S
PONCA CITY     FAIR      41  21  44 E7        30.43R
BARTLESVILLE   FAIR      34  23  64 CALM      30.45R
MUSKOGEE       CLEAR     43  26  51 N7        30.42R
$$

OKZ032-040>043-046>053-073>077-010200-
SOUTH CENTRAL/SOUTHEAST OKLAHOMA

CITY           SKY/WX    TMP DP  RH WIND       PRES   REMARKS
ARDMORE/DWNTWN CLEAR     52  30  43 NE3       30.37R
MCALESTER      CLEAR     47  30  51 N10       30.39R
$$




USA.gov is the U.S. government's official web portal to all federal, state and local government web resources and services.